TimeEDT,TemperatureF,Dew PointF,Humidity,Sea Level PressureIn,VisibilityMPH,Wind Direction,Wind SpeedMPH,Gust SpeedMPH,PrecipitationIn,Events,Conditions,WindDirDegrees,DateUTC
12:53 AM,48.0,44.1,86,29.96,10.0,Calm,Calm,-,N/A,,Clear,0,2013-09-26 04:53:00
1:53 AM,48.0,44.1,86,29.96,10.0,Calm,Calm,-,N/A,,Clear,0,2013-09-26 05:53:00
2:53 AM,52.0,46.0,80,29.96,10.0,Calm,Calm,-,N/A,,Overcast,0,2013-09-26 06:53:00
3:53 AM,55.9,48.0,75,29.97,10.0,North,5.8,-,N/A,,Overcast,360,2013-09-26 07:53:00
4:53 AM,57.9,50.0,75,29.96,10.0,North,8.1,-,N/A,,Overcast,10,2013-09-26 08:53:00
5:53 AM,57.0,48.0,72,29.97,10.0,North,10.4,-,N/A,,Overcast,10,2013-09-26 09:53:00
6:53 AM,55.0,45.0,69,29.98,10.0,NNE,8.1,-,N/A,,Mostly Cloudy,20,2013-09-26 10:53:00
7:53 AM,57.9,46.0,65,30.00,10.0,North,11.5,-,N/A,,Overcast,10,2013-09-26 11:53:00
8:53 AM,60.1,44.1,55,30.01,10.0,North,16.1,-,N/A,,Overcast,10,2013-09-26 12:53:00
9:53 AM,62.1,44.1,52,30.02,10.0,North,16.1,23.0,N/A,,Scattered Clouds,10,2013-09-26 13:53:00
10:53 AM,61.0,44.1,54,30.03,10.0,North,13.8,-,N/A,,Mostly Cloudy,360,2013-09-26 14:53:00
11:53 AM,61.0,45.0,56,30.03,10.0,NNE,11.5,-,N/A,,Overcast,30,2013-09-26 15:53:00
12:53 PM,63.0,46.9,56,30.03,10.0,North,11.5,-,N/A,,Partly Cloudy,10,2013-09-26 16:53:00
1:53 PM,61.0,48.0,62,30.02,10.0,NE,12.7,19.6,N/A,,Mostly Cloudy,40,2013-09-26 17:53:00
2:53 PM,62.1,48.0,60,30.02,10.0,NNE,13.8,-,N/A,,Scattered Clouds,20,2013-09-26 18:53:00
3:53 PM,60.1,46.9,62,30.02,10.0,NNE,17.3,-,N/A,,Scattered Clouds,30,2013-09-26 19:53:00
4:04 PM,59.0,46.4,63,30.02,10.0,NNE,16.1,-,N/A,,Mostly Cloudy,30,2013-09-26 20:04:00
4:11 PM,60.8,46.4,59,30.02,10.0,NNE,19.6,-,N/A,,Scattered Clouds,30,2013-09-26 20:11:00
4:22 PM,60.8,46.4,59,30.02,10.0,NNE,16.1,-,N/A,,Mostly Cloudy,20,2013-09-26 20:22:00
4:36 PM,60.8,48.2,63,30.02,10.0,NNE,17.3,-,N/A,,Scattered Clouds,20,2013-09-26 20:36:00
4:53 PM,60.1,46.9,62,30.02,10.0,NNE,16.1,-,N/A,,Partly Cloudy,30,2013-09-26 20:53:00
5:43 PM,57.2,46.4,67,30.03,10.0,NNE,18.4,-,N/A,,Mostly Cloudy,20,2013-09-26 21:43:00
5:53 PM,57.9,46.9,67,30.04,10.0,NNE,16.1,-,N/A,,Overcast,20,2013-09-26 21:53:00
6:53 PM,57.0,46.9,69,30.06,10.0,NNE,13.8,-,N/A,,Overcast,20,2013-09-26 22:53:00
7:37 PM,55.4,48.2,77,30.07,10.0,NNE,11.5,-,N/A,,Scattered Clouds,30,2013-09-26 23:37:00
7:53 PM,55.0,48.9,80,30.07,10.0,NNE,8.1,-,N/A,,Scattered Clouds,20,2013-09-26 23:53:00
8:53 PM,52.0,48.0,86,30.08,10.0,NNE,5.8,-,N/A,,Clear,20,2013-09-27 00:53:00
9:53 PM,51.1,48.0,89,30.09,10.0,Calm,Calm,-,N/A,,Clear,0,2013-09-27 01:53:00
10:53 PM,53.1,48.9,86,30.09,10.0,Calm,Calm,-,N/A,,Overcast,0,2013-09-27 02:53:00
11:53 PM,55.9,51.1,84,30.09,10.0,North,5.8,-,N/A,,Overcast,360,2013-09-27 03:53:00